| time (UTC) | temp C | wind direction | speed KPH | gust KPH | rain 1hr cm | rain 24hr cm | rain mn cm | humidity % | barometer mb |
| 20260509090003 | 13 | 140 | 1.6 | 4.8 | 0.00 | 0.00 | 0.00 | 81 | 1025.6 |
| 20260509085619 | 13 | 140 | 1.6 | 4.8 | 0.00 | 0.00 | 0.00 | 81 | 1025.5 |
| 20260509084503 | 14 | 140 | 0.0 | 3.2 | 0.00 | 0.00 | 0.00 | 78 | 1025.4 |
| 20260509083603 | 15 | 0 | 0.0 | 0.0 | 0.00 | 0.00 | 0.00 | 77 | 1025.3 |
| 20260509082917 | 15 | 0 | 0.0 | 0.0 | 0.00 | 0.00 | 0.00 | 76 | 1025.2 |
| 20260509081803 | 15 | 140 | 0.0 | 3.2 | 0.00 | 0.00 | 0.00 | 75 | 1025.0 |
| 20260509080903 | 15 | 140 | 0.0 | 3.2 | 0.00 | 0.00 | 0.00 | 75 | 1024.7 |
| 20260509080003 | 16 | 143 | 3.2 | 16.1 | 0.00 | 0.00 | 0.00 | 74 | 1024.5 |
| 20260509075403 | 16 | 221 | 3.2 | 16.1 | 0.00 | 0.00 | 0.00 | 75 | 1024.4 |
| 20260509074503 | 16 | 277 | 3.2 | 4.8 | 0.00 | 0.00 | 0.00 | 72 | 1024.0 |
| 20260509073603 | 17 | 277 | 1.6 | 3.2 | 0.00 | 0.00 | 0.00 | 69 | 1023.9 |
| 20260509072703 | 17 | 277 | 1.6 | 4.8 | 0.00 | 0.00 | 0.00 | 67 | 1023.9 |
| 20260509071803 | 18 | 277 | 0.0 | 3.2 | 0.00 | 0.00 | 0.00 | 64 | 1023.8 |
| 20260509070903 | 19 | 277 | 1.6 | 4.8 | 0.00 | 0.00 | 0.00 | 60 | 1023.7 |
| 20260509070003 | 20 | 0 | 0.0 | 0.0 | 0.00 | 0.00 | 0.00 | 55 | 1023.6 |
| 20260509065403 | 20 | 0 | 0.0 | 0.0 | 0.00 | 0.00 | 0.00 | 54 | 1023.6 |
| 20260509064503 | 21 | 0 | 0.0 | 0.0 | 0.00 | 0.00 | 0.00 | 53 | 1023.5 |
| 20260509063603 | 21 | 100 | 0.0 | 3.2 | 0.00 | 0.00 | 0.00 | 53 | 1023.4 |
| 20260509062703 | 21 | 100 | 1.6 | 3.2 | 0.00 | 0.00 | 0.00 | 50 | 1023.3 |
| 20260509061803 | 21 | 100 | 1.6 | 4.8 | 0.00 | 0.00 | 0.00 | 50 | 1023.2 |
| 20260509060903 | 21 | 100 | 0.0 | 3.2 | 0.00 | 0.00 | 0.00 | 50 | 1023.2 |
| 20260509060004 | 21 | 100 | 0.0 | 3.2 | 0.00 | 0.00 | 0.00 | 49 | 1023.1 |
| 20260509055403 | 21 | 100 | 1.6 | 9.7 | 0.00 | 0.00 | 0.00 | 50 | 1023.0 |
| 20260509054503 | 21 | 101 | 1.6 | 9.7 | 0.00 | 0.00 | 0.00 | 51 | 1023.0 |
| 20260509053817 | 21 | 102 | 0.0 | 1.6 | 0.00 | 0.00 | 0.00 | 51 | 1023.0 |
| 20260509052703 | 21 | 102 | 0.0 | 3.2 | 0.00 | 0.00 | 0.00 | 50 | 1022.9 |
| 20260509052019 | 21 | 102 | 0.0 | 3.2 | 0.00 | 0.00 | 0.00 | 51 | 1022.8 |
| 20260509050903 | 21 | 100 | 3.2 | 6.4 | 0.00 | 0.00 | 0.00 | 50 | 1022.7 |
| 20260509050003 | 21 | 91 | 1.6 | 6.4 | 0.00 | 0.00 | 0.00 | 50 | 1022.9 |
| 20260509045403 | 21 | 91 | 3.2 | 6.4 | 0.00 | 0.00 | 0.00 | 49 | 1022.9 |
| 20260509044503 | 21 | 93 | 4.8 | 11.3 | 0.00 | 0.00 | 0.00 | 50 | 1022.9 |
| 20260509043603 | 21 | 96 | 3.2 | 9.7 | 0.00 | 0.00 | 0.00 | 49 | 1022.8 |
| 20260509042703 | 21 | 86 | 3.2 | 11.3 | 0.00 | 0.00 | 0.00 | 49 | 1023.0 |
| 20260509041803 | 21 | 95 | 4.8 | 11.3 | 0.00 | 0.00 | 0.00 | 50 | 1023.0 |
| 20260509040903 | 20 | 92 | 6.4 | 11.3 | 0.00 | 0.00 | 0.00 | 50 | 1022.9 |
| 20260509040003 | 20 | 92 | 3.2 | 9.7 | 0.00 | 0.00 | 0.00 | 51 | 1022.9 |
| 20260509035617 | 20 | 99 | 3.2 | 9.7 | 0.00 | 0.00 | 0.00 | 51 | 1022.9 |
| 20260509034717 | 20 | 121 | 3.2 | 11.3 | 0.00 | 0.00 | 0.00 | 51 | 1023.0 |
| 20260509033603 | 20 | 170 | 1.6 | 6.4 | 0.00 | 0.00 | 0.00 | 52 | 1023.0 |
| 20260509032703 | 20 | 169 | 1.6 | 6.4 | 0.00 | 0.00 | 0.00 | 53 | 1023.1 |
| 20260509031803 | 20 | 170 | 3.2 | 8.0 | 0.00 | 0.00 | 0.00 | 51 | 1023.1 |
| 20260509030903 | 20 | 172 | 3.2 | 6.4 | 0.00 | 0.00 | 0.00 | 52 | 1023.2 |
| 20260509030003 | 20 | 180 | 3.2 | 6.4 | 0.00 | 0.00 | 0.00 | 52 | 1023.3 |
| 20260509025403 | 20 | 189 | 1.6 | 4.8 | 0.00 | 0.00 | 0.00 | 52 | 1023.4 |
| 20260509024503 | 20 | 181 | 3.2 | 9.7 | 0.00 | 0.00 | 0.00 | 52 | 1023.6 |
| 20260509023603 | 20 | 111 | 3.2 | 9.7 | 0.00 | 0.00 | 0.00 | 52 | 1023.7 |
| 20260509022703 | 20 | 161 | 3.2 | 9.7 | 0.00 | 0.00 | 0.00 | 51 | 1023.8 |
| 20260509021803 | 20 | 163 | 3.2 | 9.7 | 0.00 | 0.00 | 0.00 | 52 | 1024.0 |
| 20260509020903 | 20 | 168 | 4.8 | 9.7 | 0.00 | 0.00 | 0.00 | 53 | 1024.1 |
| 20260509020003 | 20 | 117 | 4.8 | 11.3 | 0.00 | 0.00 | 0.00 | 53 | 1024.3 |
| 20260509015403 | 20 | 106 | 4.8 | 12.9 | 0.00 | 0.00 | 0.00 | 53 | 1024.5 |
| 20260509014716 | 20 | 96 | 4.8 | 12.9 | 0.00 | 0.00 | 0.00 | 52 | 1024.6 |
| 20260509013819 | 20 | 110 | 4.8 | 12.9 | 0.00 | 0.00 | 0.00 | 55 | 1024.7 |
| 20260509012703 | 18 | 159 | 4.8 | 9.7 | 0.00 | 0.00 | 0.00 | 58 | 1024.8 |
| 20260509011803 | 18 | 165 | 3.2 | 9.7 | 0.00 | 0.00 | 0.00 | 58 | 1024.9 |
| 20260509010903 | 18 | 156 | 3.2 | 9.7 | 0.00 | 0.00 | 0.00 | 56 | 1025.0 |
| 20260509010003 | 18 | 148 | 3.2 | 9.7 | 0.00 | 0.00 | 0.00 | 59 | 1025.0 |
| 20260509005403 | 18 | 130 | 3.2 | 9.7 | 0.00 | 0.00 | 0.00 | 56 | 1025.1 |
| 20260509004719 | 17 | 95 | 1.6 | 4.8 | 0.00 | 0.00 | 0.00 | 58 | 1025.1 |
| 20260509003603 | 17 | 75 | 1.6 | 3.2 | 0.00 | 0.00 | 0.00 | 65 | 1025.2 |
| 20260509002704 | 16 | 75 | 1.6 | 4.8 | 0.00 | 0.00 | 0.00 | 65 | 1025.2 |
| 20260509001803 | 16 | 76 | 1.6 | 6.4 | 0.00 | 0.00 | 0.00 | 66 | 1025.3 |
| 20260509000903 | 16 | 76 | 1.6 | 4.8 | 0.00 | 0.00 | 0.00 | 67 | 1025.4 |
| 20260509000003 | 16 | 56 | 3.2 | 8.0 | 0.00 | 0.00 | 0.00 | 68 | 1025.5 |
| 20260508235403 | 16 | 322 | 1.6 | 3.2 | 0.00 | 0.00 | 0.00 | 70 | 1025.6 |
| 20260508234503 | 15 | 317 | 0.0 | 4.8 | 0.00 | 0.00 | 0.00 | 72 | 1025.5 |
| 20260508233603 | 14 | 303 | 1.6 | 4.8 | 0.00 | 0.00 | 0.00 | 75 | 1025.4 |
| 20260508232703 | 13 | 301 | 0.0 | 1.6 | 0.00 | 0.00 | 0.00 | 76 | 1025.4 |
| 20260508231803 | 12 | 301 | 0.0 | 1.6 | 0.00 | 0.00 | 0.00 | 79 | 1025.5 |
| 20260508230903 | 11 | 301 | 0.0 | 3.2 | 0.00 | 0.00 | 0.00 | 83 | 1025.5 |
| 20260508230003 | 11 | 301 | 0.0 | 3.2 | 0.00 | 0.00 | 0.00 | 83 | 1025.6 |
| 20260508225403 | 11 | 301 | 0.0 | 3.2 | 0.00 | 0.00 | 0.00 | 84 | 1025.7 |
| 20260508224503 | 11 | 301 | 1.6 | 4.8 | 0.00 | 0.00 | 0.00 | 84 | 1025.6 |
| 20260508223603 | 11 | 291 | 1.6 | 4.8 | 0.00 | 0.00 | 0.00 | 86 | 1025.6 |
| 20260508222917 | 10 | 0 | 0.0 | 0.0 | 0.00 | 0.00 | 0.00 | 87 | 1025.4 |
| 20260508221803 | 9 | 248 | 0.0 | 3.2 | 0.00 | 0.00 | 0.00 | 90 | 1025.2 |
| 20260508220903 | 8 | 248 | 0.0 | 1.6 | 0.00 | 0.00 | 0.00 | 90 | 1025.1 |
| 20260508220003 | 7 | 0 | 0.0 | 0.0 | 0.00 | 0.00 | 0.00 | 91 | 1025.1 |
| 20260508215403 | 7 | 0 | 0.0 | 0.0 | 0.00 | 0.00 | 0.00 | 92 | 1025.0 |
| 20260508214503 | 7 | 0 | 0.0 | 0.0 | 0.00 | 0.00 | 0.00 | 93 | 1024.8 |
| 20260508213818 | 7 | 0 | 0.0 | 0.0 | 0.00 | 0.00 | 0.00 | 93 | 1024.8 |
| 20260508212703 | 6 | 0 | 0.0 | 0.0 | 0.00 | 0.00 | 0.00 | 93 | 1024.7 |
| 20260508211803 | 6 | 0 | 0.0 | 0.0 | 0.00 | 0.00 | 0.00 | 93 | 1024.5 |
| 20260508210903 | 6 | 0 | 0.0 | 0.0 | 0.00 | 0.00 | 0.00 | 93 | 1024.5 |
| 20260508210003 | 6 | 236 | 0.0 | 1.6 | 0.00 | 0.00 | 0.00 | 94 | 1024.3 |
| 20260508205403 | 6 | 236 | 0.0 | 4.8 | 0.00 | 0.00 | 0.00 | 93 | 1024.2 |
| 20260508204503 | 6 | 236 | 1.6 | 4.8 | 0.00 | 0.00 | 0.00 | 93 | 1024.0 |
| 20260508203603 | 6 | 236 | 0.0 | 1.6 | 0.00 | 0.00 | 0.00 | 92 | 1024.0 |
| 20260508202703 | 6 | 236 | 0.0 | 1.6 | 0.00 | 0.00 | 0.00 | 92 | 1023.8 |
| 20260508202016 | 6 | 0 | 0.0 | 0.0 | 0.00 | 0.00 | 0.00 | 92 | 1023.9 |
| 20260508200903 | 6 | 236 | 0.0 | 3.2 | 0.00 | 0.00 | 0.00 | 92 | 1023.7 |
| 20260508200003 | 6 | 236 | 0.0 | 3.2 | 0.00 | 0.00 | 0.00 | 92 | 1023.7 |
| 20260508195618 | 6 | 0 | 0.0 | 0.0 | 0.00 | 0.00 | 0.00 | 92 | 1023.7 |
| 20260508194503 | 6 | 236 | 0.0 | 1.6 | 0.00 | 0.00 | 0.00 | 93 | 1023.6 |
| 20260508193603 | 6 | 236 | 0.0 | 3.2 | 0.00 | 0.00 | 0.00 | 93 | 1023.3 |
| 20260508192703 | 6 | 236 | 0.0 | 3.2 | 0.00 | 0.00 | 0.00 | 91 | 1023.2 |
| 20260508191803 | 6 | 0 | 0.0 | 0.0 | 0.00 | 0.00 | 0.00 | 91 | 1023.1 |
| 20260508190903 | 6 | 236 | 0.0 | 1.6 | 0.00 | 0.00 | 0.00 | 92 | 1023.0 |
| 20260508190003 | 6 | 236 | 0.0 | 1.6 | 0.00 | 0.00 | 0.00 | 92 | 1023.0 |
| 20260508185403 | 6 | 0 | 0.0 | 0.0 | 0.00 | 0.00 | 0.00 | 92 | 1022.9 |
| 20260508184504 | 6 | 0 | 0.0 | 0.0 | 0.00 | 0.00 | 0.00 | 92 | 1022.9 |
| 20260508183603 | 6 | 0 | 0.0 | 0.0 | 0.00 | 0.00 | 0.00 | 91 | 1022.8 |
| 20260508182703 | 6 | 0 | 0.0 | 0.0 | 0.00 | 0.00 | 0.00 | 91 | 1022.7 |
| 20260508181803 | 6 | 0 | 0.0 | 0.0 | 0.00 | 0.00 | 0.00 | 91 | 1022.8 |
| 20260508180903 | 6 | 236 | 0.0 | 3.2 | 0.00 | 0.00 | 0.00 | 90 | 1022.6 |
| 20260508180003 | 6 | 0 | 0.0 | 0.0 | 0.00 | 0.00 | 0.00 | 90 | 1022.6 |
| 20260508175617 | 6 | 0 | 0.0 | 0.0 | 0.00 | 0.00 | 0.00 | 90 | 1022.6 |
| 20260508174503 | 7 | 236 | 0.0 | 1.6 | 0.00 | 0.00 | 0.00 | 91 | 1022.5 |
| 20260508173603 | 6 | 236 | 1.6 | 3.2 | 0.00 | 0.00 | 0.00 | 90 | 1022.5 |
| 20260508172703 | 7 | 236 | 0.0 | 3.2 | 0.00 | 0.00 | 0.00 | 90 | 1022.5 |
| 20260508171803 | 6 | 236 | 0.0 | 1.6 | 0.00 | 0.00 | 0.00 | 90 | 1022.4 |
| 20260508170903 | 7 | 236 | 0.0 | 1.6 | 0.00 | 0.00 | 0.00 | 90 | 1022.5 |
| 20260508170217 | 7 | 236 | 0.0 | 3.2 | 0.00 | 0.00 | 0.00 | 89 | 1022.5 |
| 20260508165403 | 7 | 236 | 0.0 | 1.6 | 0.00 | 0.00 | 0.00 | 89 | 1022.3 |
| 20260508164503 | 7 | 236 | 0.0 | 3.2 | 0.00 | 0.00 | 0.00 | 89 | 1022.4 |
| 20260508163603 | 7 | 236 | 0.0 | 3.2 | 0.00 | 0.00 | 0.00 | 88 | 1022.4 |
| 20260508162703 | 7 | 236 | 0.0 | 3.2 | 0.00 | 0.00 | 0.00 | 89 | 1022.4 |
| 20260508162018 | 7 | 236 | 0.0 | 3.2 | 0.00 | 0.00 | 0.00 | 90 | 1022.4 |
| 20260508160903 | 7 | 236 | 0.0 | 1.6 | 0.00 | 0.00 | 0.00 | 89 | 1022.3 |
| 20260508160003 | 7 | 236 | 1.6 | 3.2 | 0.00 | 0.00 | 0.00 | 88 | 1022.2 |
| 20260508155403 | 7 | 236 | 1.6 | 3.2 | 0.00 | 0.00 | 0.00 | 88 | 1022.2 |
| 20260508154503 | 7 | 236 | 0.0 | 3.2 | 0.00 | 0.00 | 0.00 | 87 | 1022.2 |
| 20260508153603 | 8 | 236 | 0.0 | 4.8 | 0.00 | 0.00 | 0.00 | 87 | 1022.1 |
| 20260508152919 | 8 | 236 | 1.6 | 3.2 | 0.00 | 0.00 | 0.00 | 87 | 1022.2 |
| 20260508151803 | 8 | 235 | 0.0 | 1.6 | 0.00 | 0.00 | 0.00 | 88 | 1022.3 |
| 20260508150903 | 8 | 236 | 1.6 | 4.8 | 0.00 | 0.00 | 0.00 | 88 | 1022.3 |
| 20260508150003 | 7 | 236 | 3.2 | 6.4 | 0.00 | 0.00 | 0.00 | 88 | 1022.3 |
| 20260508145403 | 7 | 236 | 3.2 | 4.8 | 0.00 | 0.00 | 0.00 | 87 | 1022.3 |
| 20260508144503 | 8 | 236 | 1.6 | 4.8 | 0.00 | 0.00 | 0.00 | 87 | 1022.3 |
| 20260508143604 | 7 | 236 | 0.0 | 4.8 | 0.00 | 0.00 | 0.00 | 87 | 1022.4 |
| 20260508142918 | 8 | 0 | 0.0 | 0.0 | 0.00 | 0.00 | 0.00 | 86 | 1022.4 |
| 20260508141803 | 8 | 0 | 0.0 | 0.0 | 0.00 | 0.00 | 0.00 | 85 | 1022.2 |
| 20260508140903 | 8 | 0 | 0.0 | 0.0 | 0.00 | 0.00 | 0.00 | 85 | 1022.4 |
| 20260508140004 | 8 | 0 | 0.0 | 0.0 | 0.00 | 0.00 | 0.00 | 85 | 1022.2 |
| 20260508135403 | 8 | 0 | 0.0 | 0.0 | 0.00 | 0.00 | 0.00 | 84 | 1022.1 |
| 20260508134719 | 8 | 0 | 0.0 | 0.0 | 0.00 | 0.00 | 0.00 | 84 | 1022.1 |
| 20260508133603 | 8 | 0 | 0.0 | 0.0 | 0.00 | 0.00 | 0.00 | 84 | 1022.1 |
| 20260508132703 | 8 | 0 | 0.0 | 0.0 | 0.00 | 0.00 | 0.00 | 84 | 1022.1 |
| 20260508132017 | 8 | 236 | 1.6 | 3.2 | 0.00 | 0.00 | 0.00 | 85 | 1022.1 |
| 20260508130903 | 8 | 236 | 1.6 | 4.8 | 0.00 | 0.00 | 0.00 | 84 | 1022.1 |
| 20260508130003 | 8 | 236 | 1.6 | 4.8 | 0.00 | 0.00 | 0.00 | 84 | 1022.1 |
| 20260508125403 | 8 | 232 | 3.2 | 6.4 | 0.00 | 0.00 | 0.00 | 84 | 1022.3 |
| 20260508124503 | 9 | 216 | 1.6 | 6.4 | 0.00 | 0.00 | 0.00 | 83 | 1022.3 |
| 20260508123603 | 9 | 214 | 0.0 | 3.2 | 0.00 | 0.00 | 0.00 | 82 | 1022.2 |
| 20260508122703 | 10 | 0 | 0.0 | 0.0 | 0.00 | 0.00 | 0.00 | 81 | 1022.4 |
| 20260508122017 | 10 | 214 | 0.0 | 4.8 | 0.00 | 0.00 | 0.00 | 81 | 1022.4 |
| 20260508120903 | 10 | 0 | 0.0 | 0.0 | 0.00 | 0.00 | 0.00 | 81 | 1022.3 |
| 20260508120003 | 10 | 0 | 0.0 | 0.0 | 0.00 | 0.00 | 0.00 | 82 | 1022.2 |
| 20260508115403 | 10 | 214 | 1.6 | 4.8 | 0.00 | 0.00 | 0.00 | 81 | 1022.1 |
| 20260508114503 | 10 | 214 | 1.6 | 4.8 | 0.00 | 0.00 | 0.00 | 81 | 1021.9 |
| 20260508113603 | 10 | 214 | 0.0 | 4.8 | 0.00 | 0.00 | 0.00 | 79 | 1022.0 |
| 20260508112917 | 10 | 214 | 0.0 | 4.8 | 0.00 | 0.00 | 0.00 | 78 | 1021.9 |
| 20260508111803 | 11 | 0 | 0.0 | 0.0 | 0.00 | 0.00 | 0.00 | 77 | 1021.7 |
| 20260508110903 | 11 | 0 | 0.0 | 0.0 | 0.00 | 0.00 | 0.00 | 76 | 1021.7 |
| 20260508110003 | 11 | 0 | 0.0 | 0.0 | 0.00 | 0.00 | 0.00 | 74 | 1021.7 |
| 20260508105403 | 12 | 0 | 0.0 | 0.0 | 0.00 | 0.00 | 0.00 | 72 | 1021.5 |
| 20260508104503 | 13 | 214 | 0.0 | 3.2 | 0.00 | 0.00 | 0.00 | 68 | 1021.4 |
| 20260508103603 | 13 | 213 | 1.6 | 4.8 | 0.00 | 0.00 | 0.00 | 66 | 1021.5 |
| 20260508102917 | 13 | 213 | 3.2 | 4.8 | 0.00 | 0.00 | 0.00 | 67 | 1021.3 |
| 20260508101803 | 12 | 213 | 0.0 | 4.8 | 0.00 | 0.00 | 0.00 | 69 | 1021.3 |
| 20260508100903 | 13 | 213 | 1.6 | 4.8 | 0.00 | 0.00 | 0.00 | 66 | 1021.2 |
| 20260508100003 | 14 | 214 | 1.6 | 6.4 | 0.00 | 0.00 | 0.00 | 64 | 1021.0 |
| 20260508095403 | 14 | 214 | 0.0 | 4.8 | 0.00 | 0.00 | 0.00 | 63 | 1021.1 |
| 20260508094718 | 15 | 214 | 0.0 | 4.8 | 0.00 | 0.00 | 0.00 | 63 | 1021.0 |
| 20260508093603 | 15 | 215 | 1.6 | 4.8 | 0.00 | 0.00 | 0.00 | 61 | 1020.8 |
| 20260508092703 | 15 | 214 | 3.2 | 8.0 | 0.00 | 0.00 | 0.00 | 61 | 1020.6 |
| 20260508091804 | 15 | 224 | 3.2 | 14.5 | 0.00 | 0.00 | 0.00 | 61 | 1020.7 |
| 20260508090903 | 15 | 227 | 3.2 | 6.4 | 0.00 | 0.00 | 0.00 | 60 | 1020.6 |